Weather in Klepka

Russia / Magadan District     59°45′14″N   151°29′27″E
temp.,
°C
wind,
m/s
gust,
m/s
humid.,
%
clouds,
%
prec.,
mm/h
press.,
hPa
HPBL,
m
13 april, tue
tue1323:00−14nne338197 0.1 101829
02:00−17nne3378100 0.0 101938
05:00−19nne337899 0.0 102025
08:00−18nne34725 0.0 1020128
11:00−13ne23597 0.0 1020350
14:00−10nne12425 0.0 1019595
17:00−8s01535 0.0 1019605
20:00−15ne11735 0.0 10199
14 april, wed
wed1423:00−19nne32855 0.0 102011
02:00−20nne338650 0.0 101915
05:00−21ne3386100 0.0 101919
08:00−15ne3476100 0.0 1016128
11:00−8ene6864100 0.0 1014547
14:00−6e81060100 0.0 1010766
17:00−7e91574100 0.1 10081052
20:00−9e91487100 0.6 1006483
15 april, thu
thu1523:00−8ene101979100 1.2 1005728
02:00−9ene9148493 0.1 1005369
05:00−11e81284100 0.1 1006248
08:00−9ene61085100 0.1 1007412
11:00−6ene71073100 0.1 1007584
14:00−4e9117425 0.0 1006627
17:00−3e8117726 0.0 1006653
20:00−7e698392 0.0 1008126
16 april, fri
fri1623:00−8e3493100 0.1 100956
02:00−10ne3393100 0.1 101128
05:00−10ne2292100 0.1 101220
08:00−8ene238887 0.1 1014106
11:00−5ene12748 0.1 1016386
14:00−4ssw116923 0.0 1016542
17:00−3sw227130 0.0 1017612
20:00−9s11925 0.0 101910
17 april, sat
sat1723:00−13nne129553 0.0 101910
02:00−14nne229672 0.0 102011
05:00−15nne229578 0.1 102018
08:00−11nne119078 0.0 102095
11:00−8ssw118290 0.0 1019290
14:00−5sw238591 0.0 1019530
17:00−4ssw348190 0.1 1019613
20:00−8s229449 0.0 102010